Wetbulb
49.77 45.73 45.13 46.42 47.28 47.24 45.76 44.78 44.37 46.98 48.82 45.92 45.71 46.02 47.89 50.15 50.64 50.79 51.40 51.76 52.25 52.93 54.41 56.23 57.98 59.01 59.18 59.56 58.96 58.86 58.95 59.69 59.90 59.66 58.78 58.62 57.96 58.82 59.42 59.97 59.80 59.45 58.93 58.21
46.20 44.28 47.32 47.25 47.04 46.15 45.75 44.18 44.31 46.33 46.86 45.72 45.95 45.73 48.61 47.82 48.56 50.70 51.18 51.81 52.28 53.15 53.64 54.65 55.86 57.92 58.52 58.57 58.87 59.10 58.96 59.87 59.86 60.34 59.99 59.70 59.13 59.60 59.81 60.53 59.57 59.57 58.87 58.18
44.00 46.00 47.32 45.99 45.51 44.38 45.03 43.92 43.85 42.74 45.62 47.35 45.82 45.82 46.96 49.79 50.99 50.51 50.14 51.33 52.78 53.03 53.10 54.06 54.98 56.51 58.21 58.08 58.50 58.53 59.24 59.45 59.45 60.00 60.22 60.12 60.08 60.27 59.37 59.34 59.45 59.34 58.87 58.44
45.77 47.42 44.76 44.52 43.88 44.97 41.83 45.64 44.16 43.76 43.06 40.17 45.95 40.50 46.58 49.23 49.09 50.26 51.73 52.65 51.87 51.99 53.39 54.49 55.01 55.70 57.03 58.58 60.38 59.39 59.44 58.78 59.39 60.35 59.07 58.46 57.37 56.64 57.94 58.71 59.45 59.48 58.88 58.10
44.61 44.39 44.28 43.95 44.76 45.67 43.83 46.18 44.94 44.46 42.77 42.47 43.04 40.61 45.37 48.13 46.14 47.79 49.76 51.02 51.90 52.82 52.52 52.89 54.17 55.74 56.46 58.85 59.52 60.12 60.13 59.75 59.78 59.63 59.53 58.56 57.89 58.19 59.39 59.22 59.58 59.29 59.59 58.83
46.17 48.66 46.28 45.90 46.28 46.08 46.56 44.93 45.43 45.11 43.44 38.88 41.64 41.66 42.54 44.38 45.85 47.48 49.35 50.50 51.49 52.26 53.08 53.59 54.28 55.29 56.53 59.03 60.24 60.42 59.76 59.48 59.93 59.61 59.22 59.10 58.32 58.40 58.30 59.08 58.62 59.03 59.09 58.79
45.33 44.99 46.33 46.11 44.00 46.62 45.13 43.03 39.69 38.92 39.53 39.04 42.57 41.16 43.05 46.05 47.28 48.45 48.87 50.13 51.54 52.54 52.82 53.41 53.21 53.54 55.47 58.10 59.50 59.89 59.84 59.08 59.76 59.62 59.30 58.95 59.15 59.45 59.40 59.68 59.00 58.53 58.31 57.89
41.52 39.82 43.36 45.91 44.74 43.55 43.66 43.55 39.36 33.78 36.43 38.67 42.20 39.31 43.41 47.52 48.47 49.56 50.79 51.25 51.86 52.24 53.08 53.26 54.09 53.69 54.49 55.88 58.26 58.59 58.67 58.74 59.36 59.29 58.94 59.44 59.63 59.64 59.99 60.25 59.92 59.18 58.99 58.71
41.15 41.16 44.46 44.54 45.58 45.08 43.14 40.84 43.86 39.91 40.77 37.78 41.83 42.52 46.18 47.72 47.60 49.06 49.90 51.05 51.83 52.01 52.66 53.12 53.88 54.28 53.75 54.49 55.21 56.55 57.58 58.01 58.81 59.12 59.41 59.17 59.33 59.30 59.31 60.35 60.78 60.38 60.12 59.20
43.78 39.29 43.19 43.57 45.21 45.29 43.60 45.24 40.44 41.19 34.83 34.74 39.39 40.04 42.63 44.83 47.16 48.78 49.11 49.82 50.73 51.81 52.28 52.97 53.53 54.41 54.72 54.52 55.10 55.99 56.45 56.78 58.06 59.27 59.31 58.98 59.05 59.30 59.68 60.28 59.91 60.03 60.43 60.10
44.94 42.57 41.56 43.34 42.49 43.11 42.19 41.60 41.90 42.21 40.93 36.90 36.65 40.62 47.77 47.52 47.81 47.90 49.07 49.87 50.35 50.78 51.27 52.22 53.33 54.44 55.41 55.61 54.76 54.81 55.23 55.53 56.50 57.62 58.74 58.66 58.64 58.99 59.20 59.22 59.77 59.82 60.04 59.63
45.04 42.55 39.73 42.53 43.45 44.33 44.34 43.60 43.73 39.35 38.42 39.93 39.19 40.19 47.56 48.54 47.93 49.55 49.00 49.53 50.38 51.07 51.78 52.48 53.27 53.95 54.45 54.90 55.65 54.87 54.94 54.89 56.25 57.12 57.62 57.73 58.25 58.58 58.46 58.46 58.96 59.54 59.09 59.13
45.66 42.08 37.58 40.55 41.55 42.72 41.23 43.07 43.02 42.98 42.12 38.72 36.83 40.50 48.47 48.82 49.42 49.26 48.37 49.24 50.47 51.24 51.80 52.34 52.92 53.16 53.66 54.08 54.50 54.50 54.53 54.90 55.37 55.74 56.13 57.00 57.24 57.53 57.74 57.89 58.38 58.66 58.52 58.23
46.77 42.91 40.06 36.58 39.18 41.35 39.22 40.98 41.75 41.16 37.82 39.18 40.04 41.59 45.58 47.37 46.66 47.10 47.85 48.55 48.86 49.39 50.02 50.71 51.53 52.54 53.21 53.55 53.70 53.89 54.08 54.34 55.25 55.22 55.72 55.82 56.57 57.14 57.44 57.82 57.80 57.87 57.98 57.35
43.49 38.86 41.94 42.51 42.64 42.15 41.29 40.86 41.63 40.01 41.00 37.58 40.58 41.29 44.39 45.86 44.43 45.99 47.19 46.61 46.63 47.20 47.91 48.61 49.34 50.53 51.68 52.45 53.20 53.96 54.50 54.60 54.63 53.99 54.30 55.35 56.32 57.04 57.27 57.42 57.40 57.24 57.21 56.83
41.96 36.85 40.08 37.77 41.03 41.24 39.35 41.50 41.75 41.72 41.99 41.84 42.12 41.52 46.38 45.19 45.40 45.00 45.91 45.12 44.95 45.82 46.83 47.63 48.66 49.30 50.03 50.75 52.57 53.60 53.93 54.30 54.40 53.50 53.58 55.07 55.46 55.67 56.13 56.41 56.46 56.55 56.64 56.48
37.16 36.61 36.17 32.74 38.98 39.05 34.98 39.68 40.97 41.87 43.09 42.72 39.29 42.16 42.86 41.55 41.97 42.74 44.43 45.56 44.23 44.67 45.53 46.32 47.70 48.33 48.94 50.10 51.63 52.21 53.03 54.82 54.80 54.07 53.49 53.92 54.51 54.71 55.33 56.05 55.79 55.52 55.72 56.06
35.13 35.19 35.44 31.76 35.13 26.44 38.89 44.01 43.17 40.35 39.63 40.89 40.55 40.66 41.70 42.02 43.22 44.22 46.72 46.45 44.90 44.90 45.02 45.61 46.81 48.19 49.12 50.35 51.20 51.58 52.47 53.81 54.53 54.61 54.52 54.63 54.37 54.34 55.08 55.21 55.16 55.45 55.65 55.25
38.38 34.86 30.58 29.04 31.14 35.50 37.84 39.66 39.16 39.03 36.02 38.89 37.47 39.77 41.25 42.18 42.04 43.17 47.81 45.56 44.79 45.08 45.46 45.86 47.05 47.69 48.44 49.34 50.65 50.80 51.02 52.10 53.39 53.06 53.19 53.75 54.19 54.18 54.56 54.79 55.14 55.44 55.21 55.03
40.21 38.41 32.10 31.21 27.06 25.38 36.16 40.08 42.23 43.20 33.06 39.29 38.28 37.36 37.87 39.14 34.04 39.25 44.03 44.63 44.39 45.23 45.54 45.82 46.49 46.97 47.64 48.72 49.80 49.45 49.68 50.76 51.24 51.67 52.15 53.25 53.92 54.02 53.73 54.42 55.29 55.88 55.88 55.18
32.48 33.12 29.60 29.44 27.72 32.18 38.10 38.85 41.83 31.11 32.80 38.49 38.08 38.07 38.00 36.45 38.59 41.58 43.63 43.66 44.20 44.88 44.97 46.39 46.77 46.57 47.20 48.44 48.85 48.16 48.71 48.84 50.78 51.44 51.77 52.51 53.98 54.41 54.91 54.55 54.94 55.10 55.45 55.33
29.29 28.31 28.23 29.82 26.83 24.58 39.74 37.22 31.65 36.33 39.01 38.41 38.66 38.90 38.59 39.63 40.53 41.40 42.15 42.57 43.68 43.66 44.51 45.40 45.47 46.18 47.20 48.05 47.59 47.47 47.88 49.92 50.01 50.18 50.31 51.33 52.84 53.81 53.99 54.44 54.21 54.15 54.41 54.06
26.93 31.50 28.46 28.62 29.30 36.99 39.29 37.34 39.17 39.94 38.32 39.42 39.06 40.04 40.17 39.49 40.07 41.08 41.41 41.90 42.81 43.56 44.32 45.26 45.51 46.01 47.16 47.84 47.67 46.61 48.16 49.36 49.09 48.74 48.77 49.70 51.12 52.18 54.00 53.96 53.49 52.99 53.48 53.08
33.67 36.27 31.90 31.29 34.21 35.63 37.42 39.30 39.99 40.22 39.50 40.24 40.62 40.87 41.16 39.82 40.70 41.06 41.77 42.39 42.71 43.64 43.96 45.03 45.01 44.87 45.60 47.46 47.76 47.73 48.20 48.69 48.45 47.71 47.74 48.50 49.10 50.47 52.86 53.91 53.98 52.71 52.24 52.43
33.63 34.71 32.07 31.79 34.65 36.31 37.78 39.15 39.65 39.79 40.67 40.61 41.30 41.09 40.91 41.03 41.11 41.64 41.89 42.41 43.13 43.57 44.28 44.76 44.36 44.36 44.42 45.83 46.70 47.84 48.39 48.43 47.31 47.22 47.23 47.55 48.53 49.41 49.92 51.87 52.92 53.10 53.72 52.80
35.56 33.20 30.36 29.44 35.97 35.73 36.37 39.09 40.22 39.15 39.37 40.41 40.64 40.50 41.66 42.05 41.68 42.36 42.07 43.12 43.47 43.55 44.44 44.28 44.51 44.44 44.58 45.34 45.76 46.81 48.04 48.16 47.20 46.46 46.82 47.12 47.37 48.00 48.72 49.46 50.64 51.10 49.74 49.56
MSLP
1010.25 1010.03 1008.78 1008.42 1008.90 1008.92 1008.76 1008.17 1007.46 1006.94 1006.90 1007.44 1006.36 1005.16 1004.26 1003.74 1003.44 1003.49 1003.67 1004.01 1003.75 1004.14 1004.92 1005.84 1006.94 1007.99 1008.83 1009.61 1010.36 1011.13 1012.07 1013.05 1013.76 1014.34 1014.86 1015.37 1015.75 1016.25 1016.60 1016.88 1017.10 1017.48 1017.80 1018.22
1010.28 1009.34 1008.99 1009.63 1009.65 1009.51 1008.95 1008.34 1007.59 1007.12 1007.40 1007.43 1005.88 1004.65 1003.60 1003.54 1003.27 1002.75 1003.02 1003.34 1003.51 1003.55 1004.31 1005.13 1006.08 1007.26 1008.22 1009.04 1009.87 1010.58 1011.35 1012.23 1012.89 1013.45 1014.08 1014.68 1015.09 1015.50 1015.87 1016.26 1016.62 1016.97 1017.34 1017.65
1009.71 1009.19 1009.98 1010.03 1009.70 1009.50 1008.88 1008.43 1008.06 1008.01 1007.60 1006.43 1005.93 1003.71 1003.27 1003.35 1003.21 1003.34 1003.52 1003.65 1003.51 1003.40 1003.66 1004.20 1005.11 1006.33 1007.52 1008.21 1009.07 1010.01 1010.75 1011.51 1012.23 1012.88 1013.55 1014.20 1014.66 1014.95 1015.19 1015.48 1015.94 1016.30 1016.68 1017.06
1009.80 1009.93 1010.21 1010.09 1009.78 1009.54 1008.95 1009.05 1009.01 1008.56 1007.88 1006.42 1006.07 1004.03 1003.07 1003.00 1003.69 1003.76 1003.69 1003.77 1003.92 1004.04 1004.17 1004.04 1004.31 1005.49 1006.56 1007.53 1008.38 1009.37 1010.18 1010.87 1011.61 1012.32 1012.85 1013.41 1013.72 1014.04 1014.58 1014.89 1015.28 1015.70 1016.03 1016.41
1009.42 1009.85 1010.16 1010.07 1009.63 1009.87 1009.25 1009.62 1009.22 1008.77 1007.95 1007.01 1005.96 1005.19 1003.53 1004.15 1004.49 1004.61 1004.66 1004.69 1004.72 1004.71 1004.88 1004.59 1004.63 1004.85 1005.90 1006.88 1007.60 1008.40 1009.34 1010.18 1010.85 1011.44 1012.14 1012.67 1013.16 1013.57 1013.90 1014.26 1014.50 1014.97 1015.31 1015.66
1009.87 1010.14 1010.50 1010.04 1010.29 1010.37 1010.22 1009.57 1008.48 1008.33 1007.65 1006.29 1005.68 1005.33 1004.68 1004.89 1005.45 1005.38 1005.42 1005.47 1005.33 1005.09 1005.16 1005.18 1005.16 1004.98 1005.20 1006.25 1007.21 1007.93 1008.58 1009.25 1010.05 1010.79 1011.54 1011.92 1012.40 1012.88 1013.11 1013.37 1013.75 1014.16 1014.60 1014.97
1009.37 1009.72 1010.39 1010.85 1010.32 1010.23 1010.29 1009.42 1007.54 1007.00 1006.45 1005.32 1005.90 1005.31 1005.33 1005.77 1006.18 1005.99 1005.90 1005.93 1005.85 1005.64 1005.46 1005.33 1005.44 1005.37 1005.30 1005.85 1006.75 1007.63 1008.22 1008.74 1009.50 1010.19 1010.80 1011.38 1011.82 1012.28 1012.47 1012.68 1013.12 1013.57 1013.78 1014.13
1009.42 1009.60 1010.40 1010.79 1010.50 1010.05 1009.71 1009.43 1008.26 1007.17 1005.99 1005.48 1005.92 1004.85 1005.03 1005.75 1006.36 1006.30 1006.10 1006.32 1006.27 1005.97 1005.56 1005.58 1005.38 1005.83 1005.83 1006.08 1006.59 1007.43 1007.94 1008.37 1008.84 1009.49 1010.17 1010.82 1011.35 1011.58 1011.85 1012.08 1012.27 1012.72 1012.89 1013.23
1010.27 1009.92 1010.89 1011.12 1011.07 1011.02 1010.21 1009.75 1009.52 1008.31 1007.26 1006.37 1004.67 1004.89 1005.27 1005.57 1005.97 1006.24 1006.09 1006.09 1006.16 1006.06 1005.84 1005.73 1005.64 1005.62 1005.96 1006.19 1006.54 1007.18 1007.71 1008.07 1008.35 1008.85 1009.48 1010.03 1010.56 1010.84 1010.89 1011.27 1011.61 1011.79 1012.12 1012.40
1011.47 1010.84 1010.81 1011.33 1011.42 1011.27 1010.88 1010.48 1009.59 1008.77 1007.43 1005.80 1004.35 1004.00 1003.43 1005.06 1005.37 1006.06 1006.09 1006.44 1006.63 1006.52 1006.32 1006.17 1005.95 1005.79 1005.78 1006.07 1006.32 1006.70 1007.10 1007.34 1007.70 1008.03 1008.54 1009.12 1009.50 1009.82 1010.16 1010.44 1010.63 1010.91 1011.26 1011.70
1012.65 1011.77 1011.17 1011.20 1010.69 1009.96 1010.91 1010.24 1010.00 1009.34 1008.28 1006.73 1005.20 1003.95 1003.46 1004.58 1005.86 1006.22 1006.56 1007.10 1007.17 1007.23 1007.12 1006.84 1006.60 1006.32 1005.95 1005.73 1006.14 1006.39 1006.59 1006.84 1006.88 1007.08 1007.33 1007.83 1008.36 1008.80 1009.17 1009.50 1009.72 1010.02 1010.51 1010.91
1013.71 1012.78 1011.14 1010.19 1010.84 1010.97 1010.65 1010.06 1009.65 1009.17 1008.58 1007.95 1007.12 1005.48 1004.85 1005.26 1006.36 1006.62 1007.54 1008.01 1008.15 1008.27 1008.08 1007.72 1007.44 1007.06 1006.65 1006.31 1005.90 1005.65 1006.14 1006.28 1006.48 1006.60 1006.70 1006.83 1007.15 1007.49 1007.88 1008.25 1008.66 1009.04 1009.44 1009.94
1015.69 1013.24 1011.68 1009.94 1011.30 1011.53 1011.09 1010.65 1010.73 1010.37 1010.02 1008.76 1007.68 1005.83 1005.61 1006.17 1006.41 1007.81 1008.67 1009.16 1009.17 1009.09 1008.94 1008.61 1008.26 1007.85 1007.44 1007.06 1006.64 1006.17 1005.69 1005.64 1005.91 1006.04 1006.12 1006.26 1006.39 1006.58 1006.52 1006.66 1007.06 1007.65 1008.19 1008.71
1016.71 1014.68 1013.18 1011.92 1011.79 1012.59 1011.98 1011.60 1011.57 1011.22 1010.32 1009.12 1008.05 1007.31 1006.58 1006.97 1008.18 1009.31 1009.79 1010.14 1010.20 1010.12 1009.97 1009.70 1009.28 1008.77 1008.34 1007.84 1007.37 1006.88 1006.45 1005.87 1005.44 1005.49 1005.62 1005.64 1005.78 1005.85 1005.83 1005.78 1006.03 1006.44 1006.81 1007.31
1017.38 1015.66 1014.30 1013.27 1013.21 1013.13 1012.59 1012.24 1011.99 1011.61 1011.06 1010.23 1009.28 1008.71 1008.81 1009.47 1010.35 1010.32 1010.65 1011.10 1010.95 1010.96 1010.85 1010.53 1010.10 1009.61 1009.13 1008.51 1007.89 1007.40 1006.92 1006.36 1005.68 1005.19 1005.14 1005.15 1005.19 1005.38 1005.56 1005.66 1005.51 1005.43 1005.70 1006.17
1018.11 1016.64 1015.45 1014.29 1014.00 1013.27 1012.07 1011.84 1011.78 1011.43 1011.23 1010.69 1010.69 1009.79 1010.83 1011.77 1011.93 1011.91 1011.66 1012.01 1011.83 1011.73 1011.51 1011.11 1010.65 1010.23 1009.69 1009.09 1008.38 1007.68 1007.13 1006.52 1005.89 1005.28 1004.68 1004.65 1004.66 1004.64 1004.75 1005.06 1005.24 1005.17 1004.96 1005.02
1019.05 1017.70 1016.37 1014.02 1013.98 1013.08 1011.65 1011.04 1010.76 1010.55 1011.07 1010.97 1011.31 1011.86 1012.87 1013.02 1013.03 1012.97 1012.58 1012.35 1012.33 1012.30 1012.01 1011.49 1010.95 1010.52 1010.05 1009.42 1008.74 1008.01 1007.41 1006.59 1005.79 1005.19 1004.76 1004.37 1004.12 1004.02 1004.00 1004.14 1004.46 1004.68 1004.73 1004.76
1018.89 1018.45 1017.77 1015.73 1015.19 1013.16 1011.24 1011.67 1011.97 1012.45 1013.17 1013.28 1013.69 1014.09 1014.27 1014.16 1013.90 1013.38 1012.36 1012.28 1012.55 1012.64 1012.35 1011.87 1011.35 1010.79 1010.29 1009.59 1008.91 1008.35 1007.73 1006.85 1005.98 1005.30 1004.80 1004.37 1004.00 1003.56 1003.37 1003.44 1003.50 1003.74 1003.89 1003.85
1018.89 1018.87 1018.37 1016.82 1014.96 1012.92 1012.18 1013.12 1014.01 1013.55 1014.64 1015.38 1015.57 1015.45 1015.25 1014.88 1014.42 1013.24 1012.27 1012.80 1012.92 1012.82 1012.53 1012.25 1011.79 1011.17 1010.37 1009.58 1008.88 1008.32 1007.69 1006.93 1006.21 1005.69 1005.31 1004.79 1004.26 1003.61 1003.12 1002.84 1002.81 1002.88 1002.92 1002.92
1018.49 1018.76 1018.83 1017.49 1016.39 1014.83 1014.57 1014.99 1014.97 1014.47 1015.03 1016.03 1016.25 1016.08 1015.77 1015.34 1014.43 1013.55 1013.37 1013.51 1013.21 1012.89 1012.64 1012.26 1011.71 1011.22 1010.52 1009.66 1009.00 1008.30 1007.54 1006.85 1006.16 1005.86 1005.44 1004.89 1004.22 1003.64 1003.09 1002.69 1002.38 1002.23 1002.14 1001.97
1018.90 1019.36 1019.16 1018.69 1017.77 1016.09 1016.04 1015.97 1014.99 1015.15 1016.08 1016.20 1016.35 1016.11 1015.91 1015.62 1015.27 1014.36 1013.84 1013.51 1013.34 1012.94 1012.45 1011.92 1011.44 1010.80 1010.24 1009.68 1009.03 1008.23 1007.44 1006.79 1006.32 1005.92 1005.39 1004.70 1003.95 1003.27 1002.73 1002.32 1002.01 1001.74 1001.54 1001.42
1019.91 1019.49 1019.03 1018.66 1017.95 1016.85 1016.76 1017.01 1017.41 1016.76 1015.99 1016.29 1016.21 1016.09 1015.64 1015.36 1014.91 1014.38 1013.97 1013.48 1013.07 1012.45 1011.97 1011.53 1010.81 1010.16 1009.70 1009.34 1008.97 1008.11 1007.30 1006.79 1006.33 1005.81 1005.15 1004.41 1003.61 1002.97 1002.38 1002.01 1001.66 1001.33 1001.08 1000.88
1020.98 1020.52 1020.38 1020.53 1018.78 1017.39 1017.06 1017.37 1017.30 1017.13 1016.80 1016.29 1015.97 1015.74 1015.40 1014.89 1014.48 1014.16 1013.65 1013.14 1012.48 1012.05 1011.45 1010.89 1010.24 1009.64 1009.32 1008.95 1008.48 1007.86 1007.20 1006.69 1006.11 1005.41 1004.69 1004.05 1003.42 1002.73 1002.01 1001.56 1001.31 1001.04 1000.73 1000.45
1020.58 1020.48 1020.01 1019.74 1018.99 1018.35 1017.85 1017.58 1017.27 1016.93 1016.32 1016.07 1015.94 1015.32 1014.91 1014.34 1014.04 1013.44 1012.90 1012.39 1011.96 1011.40 1010.77 1010.34 1009.76 1009.07 1008.57 1008.41 1008.05 1007.55 1007.04 1006.39 1005.75 1004.92 1004.28 1003.75 1003.25 1002.37 1001.72 1001.12 1000.86 1000.70 1000.37 1000.02
1020.72 1020.47 1019.74 1019.09 1018.88 1018.26 1017.55 1017.08 1016.90 1016.73 1016.45 1016.06 1015.75 1015.36 1014.78 1014.19 1013.36 1012.91 1012.25 1011.67 1011.16 1010.73 1010.25 1009.79 1009.06 1008.43 1007.82 1007.70 1007.25 1006.80 1006.30 1005.95 1005.18 1004.51 1003.93 1003.36 1002.82 1002.17 1001.67 1000.86 1000.38 1000.08 999.61 999.45
1019.77 1019.54 1019.17 1018.57 1018.21 1017.73 1017.13 1017.02 1016.89 1016.55 1016.09 1015.61 1014.99 1014.35 1014.03 1013.59 1012.85 1012.39 1011.67 1011.20 1010.66 1009.98 1009.47 1009.00 1008.59 1008.05 1007.30 1006.83 1006.29 1005.95 1005.60 1005.26 1004.70 1004.05 1003.47 1002.90 1002.35 1001.70 1001.16 1000.28 999.33 999.09 998.98 998.60
Wind_Speed
4 8 9 9 6 7 8 10 11 11 6 7 14 20 20 18 18 17 17 17 16 15 14 16 17 17 17 17 17 18 18 18 14 11 10 10 10 9 9 8 11 11 10 10
7 11 6 3 4 7 10 11 12 8 1 9 15 22 18 8 8 12 16 15 16 15 14 16 18 18 19 19 19 18 18 17 15 10 9 9 9 9 8 8 10 12 12 11
11 6 3 3 6 9 10 9 11 13 14 14 12 6 11 10 9 7 1 8 11 12 15 17 18 19 19 20 20 19 18 18 17 15 9 8 8 7 8 9 8 10 13 12
9 4 4 7 9 8 12 6 6 10 11 8 10 3 12 10 16 14 12 8 5 6 11 12 15 17 20 18 16 19 18 19 17 17 13 15 10 9 8 9 8 8 13 13
1 3 5 7 5 3 4 4 8 11 12 11 6 6 12 17 16 18 18 17 14 9 5 9 14 15 18 17 17 17 17 18 17 17 16 13 12 9 8 8 11 11 10 12
16 1 5 7 2 4 6 10 14 8 7 6 5 4 10 6 11 14 16 18 18 17 14 10 7 13 14 13 15 15 18 17 18 17 18 17 16 13 10 10 8 8 8 8
6 8 1 4 8 8 8 10 4 6 6 4 3 6 7 9 10 13 15 15 17 17 16 13 11 7 11 12 13 13 16 17 17 17 17 18 16 15 14 12 10 10 9 8
6 5 4 3 4 6 1 6 6 5 4 5 4 4 8 10 8 5 13 16 15 17 16 15 12 6 8 10 12 14 15 16 17 17 17 16 16 11 11 12 10 9 9 9
6 2 4 1 2 4 5 4 4 6 4 5 3 5 7 9 8 2 13 16 19 19 17 17 15 12 4 9 12 14 14 15 16 16 14 15 15 16 13 15 12 10 11 9
4 7 2 4 3 3 6 4 4 5 4 4 6 4 6 13 6 10 13 19 19 18 18 16 15 14 10 4 8 12 15 16 15 15 14 13 15 16 15 13 15 14 12 12
7 4 6 4 8 1 5 5 5 4 4 4 5 5 7 11 10 12 16 19 18 18 17 16 15 16 14 9 3 7 11 15 15 15 15 16 15 16 15 14 14 14 13 13
7 7 8 9 6 3 4 7 6 5 4 4 4 4 3 6 4 14 18 17 17 15 15 16 16 16 15 15 13 6 7 11 13 13 14 16 15 16 16 16 16 15 15 14
10 6 7 7 4 2 5 2 7 7 6 11 6 2 7 8 11 20 17 16 14 16 16 16 16 16 16 16 16 15 12 8 11 12 14 14 15 16 17 18 18 17 16 16
7 9 11 12 9 5 6 2 4 7 8 11 13 15 16 17 19 16 16 15 14 15 16 16 16 17 17 17 17 16 15 14 10 10 12 13 14 16 16 16 16 17 17 17
8 9 13 11 13 13 16 16 16 16 17 16 16 19 17 15 14 16 13 14 15 16 17 17 17 17 18 18 17 17 15 15 14 11 11 12 13 13 14 15 16 17 17 17
7 9 13 18 17 20 24 21 21 23 22 24 22 25 9 8 10 11 9 12 14 15 17 17 17 18 18 19 17 16 16 15 15 14 11 10 12 12 13 14 15 16 16 17
10 7 10 17 15 16 17 15 14 20 22 22 21 7 8 10 12 13 14 9 13 16 18 19 19 18 18 18 17 16 17 16 14 13 13 12 11 12 13 13 14 15 16 15
13 13 10 12 12 16 6 7 6 12 10 12 7 7 10 13 16 19 17 7 14 17 19 19 17 17 17 16 15 16 15 15 14 14 14 12 12 11 11 12 13 14 14 16
15 13 8 7 9 15 21 9 9 12 7 11 12 13 15 17 17 17 8 18 19 18 18 18 18 18 19 17 16 15 15 15 14 14 15 14 14 13 12 11 12 13 14 15
9 12 12 9 8 6 13 12 16 12 7 10 16 16 18 19 14 12 20 20 21 20 17 17 18 19 17 17 16 16 16 15 14 14 15 15 14 13 13 12 11 11 13 14
2 4 12 12 11 9 12 19 18 6 8 22 20 18 19 17 15 21 20 20 21 20 20 19 17 15 17 16 17 16 15 15 14 15 15 14 14 13 12 11 10 11 11 12
10 9 8 10 16 20 11 16 10 18 21 20 23 22 21 20 20 20 21 21 20 21 20 20 17 16 15 15 15 17 17 14 15 15 15 15 14 12 10 10 10 10 10 11
6 6 8 8 11 27 24 22 19 20 23 23 22 21 21 23 22 20 19 21 20 20 19 18 16 17 15 15 14 16 17 17 16 16 16 16 15 13 11 10 9 8 9 9
15 15 13 17 18 21 23 25 24 23 22 22 23 24 22 23 23 23 20 17 17 18 18 17 19 19 16 14 15 15 17 17 17 16 17 15 15 14 12 8 7 7 7 8
15 16 19 20 21 22 21 20 21 24 24 25 24 24 24 23 23 23 20 20 18 19 18 17 18 18 21 18 17 16 16 16 17 16 15 15 12 12 13 10 9 9 10 9
12 15 12 13 19 19 21 22 25 25 24 24 24 24 23 23 22 22 20 19 19 19 18 17 18 19 21 21 19 17 15 15 17 16 13 11 12 11 10 10 11 11 17 17
Wind_Direction
169 270 247 341 325 317 302 294 291 295 353 303 277 290 293 287 264 250 240 242 239 220 216 206 199 199 198 196 199 193 192 194 194 195 197 203 206 207 212 215 217 215 211 208
233 242 14 325 292 273 281 283 287 326 50 293 295 301 290 12 333 259 238 235 241 231 207 204 197 199 200 198 195 198 197 194 197 193 197 204 206 209 209 209 212 216 214 211
271 329 74 279 270 272 270 277 304 312 317 270 312 239 74 96 80 97 220 271 263 247 225 215 200 198 199 204 197 200 198 196 199 198 194 198 209 209 209 206 208 210 214 211
273 65 278 263 269 278 281 27 308 299 313 321 357 322 74 55 40 39 33 40 35 260 263 262 212 206 204 206 199 198 199 200 199 195 196 198 203 202 205 209 204 205 210 210
354 248 257 266 316 295 340 332 288 295 286 296 154 246 83 60 58 56 62 60 54 42 2 275 247 210 213 204 203 196 198 200 198 198 200 199 205 205 203 203 201 202 202 210
265 209 268 288 328 265 325 279 264 254 263 227 95 290 63 47 63 70 56 46 37 36 36 15 288 256 211 202 199 202 197 200 199 198 199 206 202 207 205 203 200 196 203 200
207 211 202 264 258 204 255 275 271 205 203 37 102 279 62 112 95 63 48 40 29 22 20 22 14 267 236 210 197 203 204 206 200 201 203 208 207 206 214 204 200 199 200 198
298 205 196 125 279 339 311 321 314 300 328 346 154 220 131 142 121 76 45 36 24 15 15 15 19 11 262 236 207 210 211 213 205 205 206 207 211 211 211 212 203 212 208 201
311 159 122 55 318 287 122 220 15 291 224 265 148 116 156 191 171 203 33 23 17 13 16 14 18 17 1 244 225 218 220 220 217 213 208 210 209 212 211 214 214 213 212 206
2 287 111 105 225 208 281 353 231 192 278 270 161 197 151 186 183 45 16 17 9 11 14 14 11 11 16 346 241 223 221 221 220 216 211 214 215 214 215 213 214 211 212 210
303 247 133 190 201 202 172 220 230 301 270 297 314 81 79 154 83 20 9 10 1 17 8 6 8 5 7 12 321 258 235 231 224 215 211 211 216 218 217 217 216 213 209 206
27 305 274 281 80 23 314 294 278 259 183 257 308 289 88 92 80 7 11 357 17 8 7 7 2 4 4 358 352 322 255 249 239 234 220 217 214 213 215 217 216 212 210 208
348 237 282 199 152 158 239 212 278 303 284 253 259 186 132 163 331 16 360 12 4 11 10 10 6 4 4 360 356 348 332 273 258 246 238 227 221 218 216 213 211 210 210 208
303 277 279 288 345 328 288 261 278 286 269 255 241 264 288 318 357 354 6 6 8 12 8 5 1 360 359 0 357 352 345 332 307 259 252 244 231 228 225 220 214 211 209 209
344 277 286 282 298 286 280 277 272 259 260 263 275 285 299 345 348 352 6 6 9 5 1 358 357 354 353 353 352 353 345 339 326 295 265 250 250 239 238 234 223 216 213 213
328 282 300 279 278 274 273 268 269 262 260 262 268 271 346 348 349 349 356 358 1 356 353 351 350 350 349 347 343 346 344 339 330 317 291 268 256 246 235 239 234 232 223 213
278 280 296 278 281 289 278 270 274 259 259 253 263 345 9 350 341 333 320 327 353 348 344 344 342 344 343 339 337 343 341 333 333 330 318 300 275 256 244 236 234 235 234 227
258 270 273 283 298 264 231 84 31 73 43 35 40 8 348 338 329 318 293 272 342 338 334 335 333 332 334 329 331 335 334 332 335 342 339 327 309 285 263 242 236 234 232 230
238 248 265 261 248 282 299 27 6 324 101 43 358 335 325 324 323 305 2 350 334 327 326 325 324 326 321 324 329 328 326 330 330 347 340 329 323 310 291 265 248 240 234 235
237 221 234 260 262 277 80 7 340 314 191 8 344 326 322 325 309 312 328 322 318 318 323 318 318 315 315 318 322 322 319 322 328 337 331 327 320 308 298 288 272 253 243 241
201 204 233 243 257 280 26 6 328 250 6 326 324 320 317 309 302 307 309 307 315 311 312 311 307 303 304 307 312 310 311 315 326 323 321 319 320 312 303 292 279 271 255 251
290 298 271 261 256 262 359 349 343 318 313 318 319 315 309 309 305 308 314 311 304 308 307 303 301 297 296 299 303 305 308 316 318 316 313 314 316 318 307 297 286 271 263 256
261 274 297 291 299 312 308 309 316 318 312 310 309 309 308 307 305 302 301 304 301 297 298 300 299 301 303 298 297 298 304 311 312 310 310 312 312 312 307 307 292 282 261 255
281 287 273 274 283 291 299 303 300 296 300 308 309 307 306 303 305 302 298 297 299 298 299 301 297 295 296 297 294 290 296 300 304 305 306 308 306 308 306 304 289 274 269 260
279 293 283 285 286 280 282 296 309 310 307 305 301 299 297 297 299 298 296 296 295 295 294 294 295 295 298 298 293 294 292 293 298 301 300 297 298 303 304 297 294 278 266 251
268 267 274 286 294 297 297 306 306 303 300 298 299 300 298 297 294 295 294 293 291 288 288 288 289 291 292 293 293 292 290 291 293 293 295 291 292 290 290 292 296 260 243 245